| time (UTC) | temp C | wind direction | speed KPH | gust KPH | rain 1hr cm | rain 24hr cm | rain mn cm | humidity % | barometer mb |
| 20260503222304 | 21 | 308 | 12.9 | 22.5 | 0.00 | 0.00 | 0.00 | 28 | 1003.6 |
| 20260503221803 | 21 | 307 | 8.0 | 25.7 | 0.00 | 0.00 | 0.00 | 28 | 1003.6 |
| 20260503221303 | 21 | 288 | 9.7 | 19.3 | 0.00 | 0.00 | 0.00 | 28 | 1003.5 |
| 20260503220803 | 21 | 271 | 9.7 | 24.1 | 0.00 | 0.00 | 0.00 | 28 | 1003.6 |
| 20260503220303 | 21 | 288 | 8.0 | 19.3 | 0.00 | 0.00 | 0.00 | 28 | 1003.6 |
| 20260503215803 | 21 | 287 | 11.3 | 22.5 | 0.00 | 0.00 | 0.00 | 29 | 1003.6 |
| 20260503215304 | 21 | 293 | 9.7 | 20.9 | 0.00 | 0.00 | 0.00 | 29 | 1003.5 |
| 20260503214802 | 21 | 317 | 14.5 | 22.5 | 0.00 | 0.00 | 0.00 | 29 | 1003.5 |
| 20260503214302 | 21 | 314 | 11.3 | 22.5 | 0.00 | 0.00 | 0.00 | 29 | 1003.5 |
| 20260503213802 | 21 | 317 | 9.7 | 16.1 | 0.00 | 0.00 | 0.00 | 29 | 1003.5 |
| 20260503213303 | 21 | 279 | 8.0 | 19.3 | 0.00 | 0.00 | 0.00 | 29 | 1003.5 |
| 20260503212803 | 21 | 330 | 9.7 | 22.5 | 0.00 | 0.00 | 0.00 | 29 | 1003.6 |
| 20260503212304 | 21 | 326 | 16.1 | 27.4 | 0.00 | 0.00 | 0.00 | 29 | 1003.6 |
| 20260503211803 | 21 | 341 | 12.9 | 24.1 | 0.00 | 0.00 | 0.00 | 29 | 1003.6 |
| 20260503211303 | 21 | 321 | 12.9 | 29.0 | 0.00 | 0.00 | 0.00 | 29 | 1003.7 |
| 20260503210303 | 21 | 318 | 9.7 | 27.4 | 0.00 | 0.00 | 0.00 | 29 | 1003.8 |
| 20260503205803 | 21 | 262 | 8.0 | 22.5 | 0.00 | 0.00 | 0.00 | 33 | 1003.8 |
| 20260503205304 | 21 | 342 | 14.5 | 22.5 | 0.00 | 0.00 | 0.00 | 33 | 1003.9 |
| 20260503204803 | 21 | 306 | 11.3 | 19.3 | 0.00 | 0.00 | 0.00 | 33 | 1003.9 |
| 20260503204303 | 21 | 307 | 9.7 | 22.5 | 0.00 | 0.00 | 0.00 | 33 | 1004.0 |
| 20260503203803 | 21 | 268 | 9.7 | 29.0 | 0.00 | 0.00 | 0.00 | 33 | 1004.1 |
| 20260503203303 | 21 | 335 | 14.5 | 24.1 | 0.00 | 0.00 | 0.00 | 33 | 1004.1 |
| 20260503202803 | 21 | 293 | 16.1 | 24.1 | 0.00 | 0.00 | 0.00 | 33 | 1004.2 |
| 20260503202304 | 21 | 341 | 14.5 | 25.7 | 0.00 | 0.00 | 0.00 | 33 | 1004.3 |
| 20260503200803 | 21 | 341 | 11.3 | 32.2 | 0.00 | 0.00 | 0.00 | 33 | 1004.3 |
| 20260503200303 | 21 | 315 | 8.0 | 19.3 | 0.00 | 0.00 | 0.00 | 33 | 1004.2 |
| 20260503195802 | 21 | 335 | 16.1 | 24.1 | 0.00 | 0.00 | 0.00 | 31 | 1004.3 |
| 20260503195304 | 21 | 310 | 16.1 | 27.4 | 0.00 | 0.00 | 0.00 | 31 | 1004.2 |
| 20260503194803 | 21 | 302 | 9.7 | 27.4 | 0.00 | 0.00 | 0.00 | 31 | 1004.2 |
| 20260503194303 | 21 | 346 | 14.5 | 25.7 | 0.00 | 0.00 | 0.00 | 31 | 1004.2 |
| 20260503193803 | 21 | 333 | 11.3 | 22.5 | 0.00 | 0.00 | 0.00 | 31 | 1004.3 |
| 20260503193303 | 21 | 257 | 9.7 | 19.3 | 0.00 | 0.00 | 0.00 | 31 | 1004.3 |
| 20260503192803 | 21 | 310 | 12.9 | 25.7 | 0.00 | 0.00 | 0.00 | 31 | 1004.5 |
| 20260503192305 | 21 | 310 | 11.3 | 27.4 | 0.00 | 0.00 | 0.00 | 31 | 1004.4 |
| 20260503191303 | 21 | 308 | 17.7 | 29.0 | 0.00 | 0.00 | 0.00 | 31 | 1004.5 |
| 20260503190803 | 21 | 341 | 19.3 | 29.0 | 0.00 | 0.00 | 0.00 | 31 | 1004.4 |
| 20260503190303 | 21 | 328 | 19.3 | 33.8 | 0.00 | 0.00 | 0.00 | 31 | 1004.5 |
| 20260503185305 | 21 | 318 | 11.3 | 29.0 | 0.00 | 0.00 | 0.00 | 36 | 1004.6 |
| 20260503184803 | 20 | 322 | 14.5 | 32.2 | 0.00 | 0.00 | 0.00 | 36 | 1004.6 |
| 20260503184302 | 21 | 328 | 16.1 | 32.2 | 0.00 | 0.00 | 0.00 | 36 | 1004.6 |
| 20260503183803 | 20 | 292 | 6.4 | 22.5 | 0.00 | 0.00 | 0.00 | 36 | 1004.5 |
| 20260503183303 | 20 | 299 | 12.9 | 22.5 | 0.00 | 0.00 | 0.00 | 36 | 1004.6 |
| 20260503182803 | 20 | 334 | 6.4 | 25.7 | 0.00 | 0.00 | 0.00 | 36 | 1004.6 |
| 20260503180803 | 20 | 332 | 12.9 | 25.7 | 0.00 | 0.00 | 0.00 | 36 | 1004.9 |
| 20260503180303 | 20 | 355 | 12.9 | 25.7 | 0.00 | 0.00 | 0.00 | 36 | 1004.8 |
| 20260503175803 | 20 | 324 | 9.7 | 19.3 | 0.00 | 0.00 | 0.00 | 40 | 1004.9 |
| 20260503175304 | 20 | 324 | 8.0 | 29.0 | 0.00 | 0.00 | 0.00 | 40 | 1004.9 |
| 20260503174803 | 20 | 279 | 19.3 | 29.0 | 0.00 | 0.00 | 0.00 | 40 | 1004.9 |
| 20260503174303 | 20 | 338 | 12.9 | 20.9 | 0.00 | 0.00 | 0.00 | 40 | 1004.8 |
| 20260503173303 | 20 | 314 | 14.5 | 29.0 | 0.00 | 0.00 | 0.00 | 40 | 1004.9 |
| 20260503172803 | 20 | 321 | 11.3 | 24.1 | 0.00 | 0.00 | 0.00 | 40 | 1005.0 |
| 20260503171803 | 19 | 327 | 14.5 | 29.0 | 0.00 | 0.00 | 0.00 | 40 | 1005.0 |
| 20260503171303 | 19 | 277 | 9.7 | 25.7 | 0.00 | 0.00 | 0.00 | 40 | 1005.0 |
| 20260503170803 | 19 | 310 | 17.7 | 32.2 | 0.00 | 0.00 | 0.00 | 40 | 1005.1 |
| 20260503170303 | 19 | 317 | 14.5 | 24.1 | 0.00 | 0.00 | 0.00 | 40 | 1005.1 |
| 20260503150803 | 16 | 0 | 9.7 | 16.1 | 0.00 | 0.00 | 0.00 | 46 | 1004.7 |
| 20260503150303 | 16 | 302 | 11.3 | 16.1 | 0.00 | 0.00 | 0.00 | 46 | 1004.7 |
| 20260503140303 | 15 | 236 | 8.0 | 20.9 | 0.00 | 0.00 | 0.00 | 46 | 1004.7 |
| 20260503131303 | 13 | 0 | 4.8 | 19.3 | 0.00 | 0.00 | 0.00 | 49 | 1004.7 |
| 20260503130803 | 13 | 340 | 1.6 | 12.9 | 0.00 | 0.00 | 0.00 | 49 | 1004.8 |
| 20260503130303 | 12 | 291 | 8.0 | 14.5 | 0.00 | 0.00 | 0.00 | 49 | 1004.8 |
| 20260503110803 | 11 | 0 | 3.2 | 9.7 | 0.00 | 0.00 | 0.00 | 49 | 1004.4 |
| 20260503110303 | 11 | 0 | 4.8 | 16.1 | 0.00 | 0.00 | 0.00 | 49 | 1004.5 |
| 20260503090303 | 12 | 0 | 3.2 | 19.3 | 0.00 | 0.00 | 0.00 | 46 | 1005.7 |
| 20260503081303 | 13 | 0 | 8.0 | 19.3 | 0.00 | 0.00 | 0.00 | 42 | 1006.4 |
| 20260503080803 | 13 | 0 | 9.7 | 24.1 | 0.00 | 0.00 | 0.00 | 42 | 1006.6 |
| 20260503080303 | 13 | 0 | 8.0 | 24.1 | 0.00 | 0.00 | 0.00 | 42 | 1006.7 |
| 20260503072803 | 13 | 0 | 14.5 | 32.2 | 0.00 | 0.00 | 0.00 | 44 | 1006.7 |
| 20260503072305 | 12 | 0 | 9.7 | 24.1 | 0.00 | 0.00 | 0.00 | 44 | 1007.2 |
| 20260503071803 | 12 | 0 | 6.4 | 16.1 | 0.00 | 0.00 | 0.00 | 44 | 1007.4 |
| 20260503070803 | 12 | 0 | 4.8 | 14.5 | 0.00 | 0.00 | 0.00 | 44 | 1007.7 |
| 20260503070303 | 12 | 0 | 4.8 | 16.1 | 0.00 | 0.00 | 0.00 | 44 | 1007.6 |
| 20260503060303 | 11 | 0 | 0.0 | 4.8 | 0.00 | 0.00 | 0.00 | 43 | 1008.5 |
| 20260503054803 | 12 | 0 | 3.2 | 8.0 | 0.00 | 0.00 | 0.00 | 49 | 1008.5 |
| 20260503054303 | 12 | 0 | 1.6 | 8.0 | 0.00 | 0.00 | 0.00 | 49 | 1008.4 |
| 20260503053803 | 12 | 0 | 1.6 | 9.7 | 0.00 | 0.00 | 0.00 | 49 | 1008.5 |
| 20260503053303 | 12 | 0 | 1.6 | 12.9 | 0.00 | 0.00 | 0.00 | 49 | 1008.5 |
| 20260503052803 | 12 | 0 | 1.6 | 4.8 | 0.00 | 0.00 | 0.00 | 49 | 1008.6 |
| 20260503052305 | 12 | 0 | 1.6 | 8.0 | 0.00 | 0.00 | 0.00 | 49 | 1008.7 |
| 20260503051803 | 12 | 0 | 1.6 | 4.8 | 0.00 | 0.00 | 0.00 | 49 | 1008.9 |
| 20260503051303 | 12 | 0 | 1.6 | 4.8 | 0.00 | 0.00 | 0.00 | 49 | 1008.9 |
| 20260503050814 | 12 | 0 | 1.6 | 4.8 | 0.00 | 0.00 | 0.00 | 49 | 1009.0 |
| 20260503050304 | 12 | 0 | 1.6 | 8.0 | 0.00 | 0.00 | 0.00 | 49 | 1009.1 |
| 20260503045802 | 12 | 0 | 1.6 | 4.8 | 0.00 | 0.00 | 0.00 | 47 | 1009.1 |
| 20260503045305 | 12 | 0 | 3.2 | 4.8 | 0.00 | 0.00 | 0.00 | 47 | 1009.1 |
| 20260503044803 | 12 | 0 | 1.6 | 8.0 | 0.00 | 0.00 | 0.00 | 47 | 1009.2 |
| 20260503044303 | 12 | 0 | 0.0 | 1.6 | 0.00 | 0.00 | 0.00 | 47 | 1009.3 |
| 20260503043803 | 12 | 0 | 1.6 | 4.8 | 0.00 | 0.00 | 0.00 | 47 | 1009.3 |
| 20260503042803 | 12 | 0 | 0.0 | 0.0 | 0.00 | 0.00 | 0.00 | 47 | 1009.4 |
| 20260503042305 | 13 | 0 | 0.0 | 0.0 | 0.00 | 0.00 | 0.00 | 47 | 1009.6 |
| 20260503041803 | 13 | 0 | 0.0 | 0.0 | 0.00 | 0.00 | 0.00 | 47 | 1009.5 |
| 20260503040804 | 13 | 0 | 0.0 | 0.0 | 0.00 | 0.00 | 0.00 | 47 | 1009.7 |
| 20260503040303 | 13 | 0 | 0.0 | 0.0 | 0.00 | 0.00 | 0.00 | 47 | 1009.9 |
| 20260503035804 | 13 | 0 | 0.0 | 3.2 | 0.00 | 0.00 | 0.00 | 45 | 1010.1 |
| 20260503035305 | 13 | 0 | 1.6 | 4.8 | 0.00 | 0.00 | 0.00 | 45 | 1010.2 |
| 20260503034803 | 13 | 0 | 1.6 | 4.8 | 0.00 | 0.00 | 0.00 | 45 | 1010.2 |
| 20260503034303 | 13 | 0 | 0.0 | 3.2 | 0.00 | 0.00 | 0.00 | 45 | 1010.4 |
| 20260503033803 | 13 | 0 | 0.0 | 4.8 | 0.00 | 0.00 | 0.00 | 45 | 1010.4 |
| 20260503033303 | 13 | 0 | 1.6 | 4.8 | 0.00 | 0.00 | 0.00 | 45 | 1010.5 |
| 20260503032304 | 13 | 0 | 0.0 | 3.2 | 0.00 | 0.00 | 0.00 | 45 | 1010.5 |
| 20260503031804 | 13 | 0 | 1.6 | 4.8 | 0.00 | 0.00 | 0.00 | 45 | 1010.6 |
| 20260503031303 | 14 | 0 | 1.6 | 4.8 | 0.00 | 0.00 | 0.00 | 45 | 1010.7 |
| 20260503030803 | 14 | 0 | 0.0 | 4.8 | 0.00 | 0.00 | 0.00 | 45 | 1010.8 |
| 20260503030303 | 14 | 0 | 1.6 | 3.2 | 0.00 | 0.00 | 0.00 | 45 | 1010.9 |
| 20260503024804 | 15 | 0 | 3.2 | 4.8 | 0.00 | 0.00 | 0.00 | 40 | 1011.2 |
| 20260503023303 | 15 | 0 | 6.4 | 19.3 | 0.00 | 0.00 | 0.00 | 40 | 1011.2 |
| 20260503022305 | 15 | 0 | 6.4 | 16.1 | 0.00 | 0.00 | 0.00 | 40 | 1011.4 |
| 20260503021803 | 15 | 0 | 4.8 | 16.1 | 0.00 | 0.00 | 0.00 | 40 | 1011.3 |
| 20260503021303 | 15 | 0 | 4.8 | 12.9 | 0.00 | 0.00 | 0.00 | 40 | 1011.3 |
| 20260503020803 | 16 | 0 | 6.4 | 16.1 | 0.00 | 0.00 | 0.00 | 40 | 1011.3 |
| 20260503020303 | 16 | 0 | 4.8 | 19.3 | 0.00 | 0.00 | 0.00 | 40 | 1011.2 |
| 20260503015803 | 15 | 0 | 8.0 | 25.7 | 0.00 | 0.00 | 0.00 | 34 | 1011.3 |
| 20260503014803 | 15 | 0 | 4.8 | 14.5 | 0.00 | 0.00 | 0.00 | 34 | 1011.3 |
| 20260503014303 | 15 | 0 | 4.8 | 16.1 | 0.00 | 0.00 | 0.00 | 34 | 1011.3 |
| 20260503013802 | 15 | 0 | 6.4 | 16.1 | 0.00 | 0.00 | 0.00 | 34 | 1011.3 |
| 20260503013303 | 15 | 0 | 4.8 | 24.1 | 0.00 | 0.00 | 0.00 | 34 | 1011.4 |
| 20260503012802 | 15 | 0 | 3.2 | 4.8 | 0.00 | 0.00 | 0.00 | 34 | 1011.3 |
| 20260503012305 | 15 | 0 | 3.2 | 12.9 | 0.00 | 0.00 | 0.00 | 34 | 1011.2 |
| 20260503011803 | 15 | 0 | 3.2 | 4.8 | 0.00 | 0.00 | 0.00 | 34 | 1011.2 |
| 20260503011303 | 15 | 0 | 3.2 | 4.8 | 0.00 | 0.00 | 0.00 | 34 | 1011.2 |
| 20260503010803 | 15 | 0 | 1.6 | 8.0 | 0.00 | 0.00 | 0.00 | 34 | 1011.1 |
| 20260503010303 | 15 | 0 | 1.6 | 4.8 | 0.00 | 0.00 | 0.00 | 34 | 1011.0 |
| 20260503005803 | 15 | 0 | 1.6 | 4.8 | 0.00 | 0.00 | 0.00 | 32 | 1011.0 |
| 20260503005304 | 15 | 0 | 1.6 | 4.8 | 0.00 | 0.00 | 0.00 | 32 | 1011.0 |
| 20260503004804 | 15 | 0 | 1.6 | 4.8 | 0.00 | 0.00 | 0.00 | 32 | 1011.0 |
| 20260503004303 | 15 | 0 | 3.2 | 4.8 | 0.00 | 0.00 | 0.00 | 32 | 1011.1 |
| 20260503003803 | 15 | 0 | 1.6 | 4.8 | 0.00 | 0.00 | 0.00 | 32 | 1011.2 |
| 20260503003303 | 15 | 0 | 3.2 | 4.8 | 0.00 | 0.00 | 0.00 | 32 | 1011.2 |
| 20260503002803 | 16 | 0 | 1.6 | 4.8 | 0.00 | 0.00 | 0.00 | 32 | 1011.2 |
| 20260503001803 | 16 | 0 | 3.2 | 4.8 | 0.00 | 0.00 | 0.00 | 32 | 1011.3 |
| 20260503001303 | 16 | 0 | 3.2 | 8.0 | 0.00 | 0.00 | 0.00 | 32 | 1011.4 |
| 20260503000803 | 16 | 0 | 3.2 | 8.0 | 0.00 | 0.00 | 0.00 | 32 | 1011.5 |
| 20260503000304 | 16 | 0 | 3.2 | 8.0 | 0.00 | 0.00 | 0.00 | 32 | 1011.5 |
| 20260502235804 | 16 | 0 | 3.2 | 9.7 | 0.00 | 0.00 | 0.00 | 30 | 1011.6 |
| 20260502235304 | 16 | 0 | 4.8 | 12.9 | 0.00 | 0.00 | 0.00 | 30 | 1011.6 |
| 20260502234803 | 16 | 0 | 1.6 | 4.8 | 0.00 | 0.00 | 0.00 | 30 | 1011.7 |
| 20260502234303 | 16 | 0 | 3.2 | 9.7 | 0.00 | 0.00 | 0.00 | 30 | 1011.8 |
| 20260502233803 | 16 | 0 | 8.0 | 12.9 | 0.00 | 0.00 | 0.00 | 30 | 1011.8 |
| 20260502233303 | 16 | 0 | 4.8 | 16.1 | 0.00 | 0.00 | 0.00 | 30 | 1011.8 |
| 20260502232803 | 16 | 0 | 4.8 | 9.7 | 0.00 | 0.00 | 0.00 | 30 | 1012.0 |
| 20260502232304 | 16 | 0 | 4.8 | 19.3 | 0.00 | 0.00 | 0.00 | 30 | 1012.0 |
| 20260502231803 | 16 | 0 | 8.0 | 19.3 | 0.00 | 0.00 | 0.00 | 30 | 1012.0 |
| 20260502231303 | 16 | 0 | 4.8 | 16.1 | 0.00 | 0.00 | 0.00 | 30 | 1012.0 |
| 20260502230803 | 16 | 0 | 3.2 | 12.9 | 0.00 | 0.00 | 0.00 | 30 | 1012.1 |
| 20260502230303 | 16 | 0 | 6.4 | 16.1 | 0.00 | 0.00 | 0.00 | 30 | 1012.2 |
| 20260502225803 | 17 | 0 | 9.7 | 19.3 | 0.00 | 0.00 | 0.00 | 30 | 1012.2 |
| 20260502224803 | 17 | 291 | 3.2 | 12.9 | 0.00 | 0.00 | 0.00 | 30 | 1012.3 |
| 20260502224303 | 17 | 285 | 4.8 | 16.1 | 0.00 | 0.00 | 0.00 | 30 | 1012.5 |
| 20260502223803 | 17 | 248 | 8.0 | 16.1 | 0.00 | 0.00 | 0.00 | 30 | 1012.6 |
| 20260502223303 | 17 | 255 | 9.7 | 20.9 | 0.00 | 0.00 | 0.00 | 30 | 1012.6 |